Regional Weather Roundup
Issued by NWS

Home | Current Version | Previous Version | Graphics & Text | Print | Product List | Glossary On
Versions: 1 2 3 4 5 6 7 8 9 10 11 12 13 14 15 16 17 18 19 20 21 22 23 24 25 26 27 28 29 30 31 32 33 34 35 36 37 38 39 40 41 42 43 44 45 46 47 48 49
000
ASUS45 KPSR 231510
RWRAZ

ARIZONA HOURLY REGIONAL WEATHER ROUNDUP
NATIONAL WEATHER SERVICE PHOENIX AZ
800 AM MST FRI JUN 23 2017

NOTE: FAIR INDICATES FEW OR NO CLOUDS BELOW 12,000 FEET WITH NO
SIGNIFICANT WEATHER AND/OR OBSTRUCTIONS TO VISIBILITY.

AZZ001>003-036-231600-
NORTHWEST ARIZONA

CITY           SKY/WX    TMP DP  RH WIND       PRES   REMARKS
BULLHEAD CITY  SUNNY     93  55  27 SW5       29.76R
KINGMAN        SUNNY     88  50  27 SW6       29.96S
$$

AZZ004>008-015-016-018-231600-
NORTH CENTRAL ARIZONA

CITY           SKY/WX    TMP DP  RH WIND       PRES   REMARKS
GRAND CANYON   SUNNY     77  33  20 CALM      30.24S
PRESCOTT       SUNNY     85  43  22 E3        30.11R
FLAGSTAFF      SUNNY     79  31  17 VRB3      30.26R
PAYSON         SUNNY     82  43  24 N3        30.14S
PAGE           SUNNY     85  33  15 NW3       30.04R
$$

AZZ009>014-017-231600-
NORTHEAST ARIZONA

CITY           SKY/WX    TMP DP  RH WIND       PRES   REMARKS
WINSLOW        SUNNY     81  33  17 CALM      30.10R
SAINT JOHNS    SUNNY     81  31  16 CALM      30.15R
WINDOW ROCK    SUNNY     67  28  23 CALM      30.23R
SHOW LOW       SUNNY     77  30  18 NW5       30.23R
$$

AZZ540-542>544-546-548-231600-
GREATER PHOENIX AREA

CITY           SKY/WX    TMP DP  RH WIND       PRES   REMARKS
PHOENIX        SUNNY     91  57  31 CALM      29.80R
BUCKEYE        SUNNY     90  54  29 W6        29.82S
GLENDALE       SUNNY     91  55  29 SW7       29.82R
LUKE AFB       SUNNY     91  58  32 N3        29.80R
DEER VALLEY    SUNNY     91  55  29 W7        29.83R
SCOTTSDALE     SUNNY     92  54  27 W7        29.85R
MESA-FALCON    SUNNY     93  57  29 MISG      29.82S
MESA-GATEWAY   SUNNY     90  59  35 SE6       29.84R
CHANDLER       SUNNY     90  59  35 CALM      29.82R
$$

AZZ539-553-231600-
SOUTHWEST MARICOPA COUNTY AND PINAL COUNTY

CITY           SKY/WX    TMP DP  RH WIND       PRES   REMARKS
CASA GRANDE    SUNNY     90  57  32 CALM      29.85R
GILA BEND      SUNNY     87  56  34 CALM      29.80R
$$

AZZ503-504-507>509-231600-
SOUTHEAST ARIZONA

CITY           SKY/WX    TMP DP  RH WIND       PRES   REMARKS
TUCSON         SUNNY     88  60  38 CALM      29.95R
DAVIS-MONTHAN  SUNNY     87  60  39 CALM      29.93R
RYAN FIELD     SUNNY     88  59  37 CALM      29.93R
NOGALES        MOSUNNY   85  59  41 S5        30.04R
SIERRA VISTA   MOSUNNY   86  54  33 W12       30.10R
DOUGLAS        MOSUNNY   83  57  41 NW10G21   30.04R
SAFFORD        SUNNY     91  53  27 NW16      29.91R
$$

AZZ532-231600-
SOUTHWEST ARIZONA

CITY           SKY/WX    TMP DP  RH WIND       PRES   REMARKS
YUMA           MOSUNNY   87  60  40 S9        29.76R
$$

CAZ041-043-047-048-061-525>527-560>570-231600-
SOUTHERN CALIFORNIA

CITY           SKY/WX    TMP DP  RH WIND       PRES   REMARKS
DOWNTOWN L.A.  NOT AVBL
L.A. AIRPORT   CLOUDY    65  62  90 W8        29.91R FOG
SAN DIEGO      CLOUDY    67  62  84 NW6       29.92R
BURBANK        MOSUNNY   66  59  78 CALM      29.90S
ONTARIO        MOSUNNY   66  61  84 SW5       29.91R HAZE
RIVERSIDE      PTSUNNY   65  61  87 VRB3      29.92R FOG
PALM SPRINGS   SUNNY     90  56  31 SE5       29.77R
EL CENTRO NAS  SUNNY     81  71  71 S3        29.75R
IMPERIAL       SUNNY     82  71  69 CALM      29.74R
BLYTHE         SUNNY     88  64  44 S15       29.76R
$$

NVZ020-UTZ003-231600-
SOUTHERN NEVADA-UTAH

CITY           SKY/WX    TMP DP  RH WIND       PRES   REMARKS
LAS VEGAS      MOSUNNY   96  26   8 N9        29.88R
SALT LAKE CITY SUNNY     70  36  28 S7        30.17R
$$

NMZ009-TXZ055-231600-
NEW MEXICO-WEST TEXAS

CITY           SKY/WX    TMP DP  RH WIND       PRES   REMARKS
ALBUQUERQUE    PTSUNNY   76  32  20 N8        30.10R
EL PASO        MOSUNNY   94  37  13 N9        29.89R
$$


........................KEY........................
SKY/WX - SKY CONDITION/WEATHER
TMP    - TEMPERATURE IN FAHRENHEIT
DP     - DEW POINT IN FAHRENHEIT
RH     - RELATIVE HUMIDITY IN PERCENT
WIND   - DIRECTION AND SPEED IN MILES PER HOUR (MPH)
VRB    - VARIABLE WIND DIRECTION
PRES   - MEAN SEA LEVEL PRESSURE IN INCHES OF MERCURY
         F - FALLING PRESSURE   R - RISING PRESSURE
         S - STEADY PRESSURE
VSB    - VISIBILITY IN MILES
HX     - HEAT INDEX IN FAHRENHEIT
WCI    - WIND CHILL INDEX IN FAHRENHEIT
TC     - TEMPERATURE IN CELSIUS WHICH IS ALSO KNOWN AS
         TEMPERATURE IN CENTIGRADE
AFB    - AIR FORCE BASE
         LUKE AFB IS LUKE AIR FORCE BASE
         DAVIS-MONTHAN IS DAVIS-MONTHAN AIR FORCE BASE
NAS    - NAVAL AIR STATION
         EL CENTRO NAS IS EL CENTRO NAVAL AIR STATION
N/A    - NOT AVAILABLE





USA.gov is the U.S. government's official web portal to all federal, state and local government web resources and services.